Pocatello, ID

8:02 AM MDT on July 21, 2017 (GMT -0600)
Pocatello Regional

Weather History for KPIH - June, 2014

Change the Weather History Date:

Tuesday, June 17, 2014

  Actual Average Record
Temperature  
Mean Temperature 50 °F 62 °F  
Max Temperature 59 °F 78 °F 102 °F (1940)
Min Temperature 41 °F 47 °F 33 °F (2000)
Degree Days  
Heating Degree Days 15 4  
Month to date heating degree days 76 96  
Since 1 June heating degree days 76 96  
Since 1 July heating degree days 6616 7143  
Cooling Degree Days 0 1  
Month to date cooling degree days 0 16  
Year to date cooling degree days 0 21  
Since 1 June cooling degree days 0 16  
Moisture  
Dew Point 34 °F    
Average Humidity 61    
Maximum Humidity 93    
Minimum Humidity 28    
Precipitation  
Precipitation 0.00 in 0.04 in 0.64 in (2009)
Month to date precipitation 0.42 0.69  
Year to date precipitation 6.13 6.52  
Snow  
Snow 0.00 in - - ()
Month to date snowfall 0.0  
Since 1 June snowfall 0.0  
Since 1 July snowfall 29.4  
Snow Depth 0.00 in    
Sea Level Pressure  
Sea Level Pressure 29.87 in    
Wind  
Wind Speed 15 mph (SW)    
Max Wind Speed 24 mph    
Max Gust Speed 32 mph    
Visibility 10 miles    
Events      
T = Trace of Precipitation, MM = Missing Value Source: NWS Daily Summary

Daily Weather History Graph

Daily Weather History Graph

Search for Another Location

Airport or City:

Trip Planner

Search our weather history database for the weather conditions in past years. The results will help you decide how hot, cold, wet, or windy it might be!

Date:

Astronomy

Jun. 17, 2014 Rise Set
Actual Time 5:51 AM MDT 9:11 PM MDT
Civil Twilight 5:15 AM MDT 9:47 PM MDT
Nautical Twilight 4:29 AM MDT 10:32 PM MDT
Astronomical Twilight 3:33 AM MDT 11:29 PM MDT
Moon No Moon Rise 11:16 AM MDT (6/17)
Length of Visible Light 16h 31m
Length of Day
15h 20m
Waning Gibbous, 73% of the Moon is Illuminated
Jun 17
Waning Gibbous
Jun 19
Last Quarter
Jun 27
New
Jul 5
First Quarter
Jul 12
Full

Hourly Weather History & Observations

Time (MDT) Temp. Windchill Dew Point Humidity Pressure Visibility Wind Dir Wind Speed Gust Speed Precip Events Conditions
12:53 AM 46.0 °F 41.9 °F 44.1 °F 93% 29.73 in 10.0 mi WSW 8.1 mph - N/A   Overcast
1:53 AM 45.0 °F 40.1 °F 43.0 °F 93% 29.76 in 10.0 mi SW 9.2 mph - N/A   Scattered Clouds
2:53 AM 44.1 °F 38.6 °F 41.0 °F 89% 29.76 in 10.0 mi SW 10.4 mph - N/A   Clear
3:53 AM 45.0 °F 37.6 °F 41.0 °F 86% 29.78 in 10.0 mi SW 17.3 mph 25.3 mph N/A   Partly Cloudy
4:10 AM 44.1 °F 38.6 °F 42.1 °F 93% 29.84 in 10.0 mi SSW 10.4 mph - N/A   Mostly Cloudy
4:53 AM 45.0 °F 38.5 °F 42.1 °F 90% 29.81 in 10.0 mi SSW 13.8 mph 24.2 mph N/A   Overcast
5:12 AM 43.0 °F 36.0 °F 39.9 °F 89% 29.86 in 10.0 mi SSW 13.8 mph - N/A   Scattered Clouds
5:53 AM 42.1 °F 36.1 °F 39.0 °F 89% 29.83 in 10.0 mi SSW 10.4 mph - N/A   Partly Cloudy
6:53 AM 44.1 °F 37.1 °F 37.9 °F 79% 29.85 in 10.0 mi SSW 15.0 mph - N/A   Partly Cloudy
7:53 AM 46.0 °F 38.3 °F 37.0 °F 71% 29.87 in 10.0 mi SW 20.7 mph 25.3 mph N/A   Clear
8:53 AM 48.0 °F - 37.0 °F 66% 29.88 in 10.0 mi WSW 21.9 mph - N/A   Partly Cloudy
9:53 AM 48.0 °F - 35.1 °F 61% 29.89 in 10.0 mi SW 15.0 mph - N/A   Partly Cloudy
10:53 AM 48.9 °F - 36.0 °F 61% 29.89 in 10.0 mi WSW 16.1 mph - N/A   Scattered Clouds
11:53 AM 52.0 °F - 35.1 °F 53% 29.89 in 10.0 mi SW 24.2 mph 31.1 mph N/A   Scattered Clouds
12:53 PM 55.0 °F - 34.0 °F 45% 29.87 in 10.0 mi WSW 17.3 mph - N/A   Scattered Clouds
1:53 PM 54.0 °F - 30.9 °F 41% 29.88 in 10.0 mi WSW 12.7 mph 21.9 mph N/A   Mostly Cloudy
2:53 PM 55.0 °F - 30.0 °F 38% 29.87 in 10.0 mi WSW 15.0 mph - N/A   Mostly Cloudy
3:53 PM 55.0 °F - 28.0 °F 35% 29.89 in 10.0 mi SSW 12.7 mph - N/A   Mostly Cloudy
4:53 PM 57.0 °F - 30.0 °F 36% 29.87 in 10.0 mi WSW 15.0 mph - N/A   Mostly Cloudy
5:53 PM 59.0 °F - 26.1 °F 28% 29.88 in 10.0 mi WSW 16.1 mph 21.9 mph N/A   Scattered Clouds
6:53 PM 55.9 °F - 26.1 °F 32% 29.90 in 10.0 mi WSW 16.1 mph - N/A   Scattered Clouds
7:53 PM 55.9 °F - 25.0 °F 30% 29.91 in 10.0 mi SW 13.8 mph - N/A   Scattered Clouds
8:53 PM 53.1 °F - 27.0 °F 37% 29.92 in 10.0 mi SW 11.5 mph - N/A   Scattered Clouds
9:53 PM 48.0 °F - 30.0 °F 50% 29.96 in 10.0 mi SSW 11.5 mph - N/A   Clear
10:53 PM 48.9 °F - 28.9 °F 46% 29.97 in 10.0 mi South 15.0 mph - N/A   Clear
11:53 PM 46.9 °F - 28.9 °F 50% 29.96 in 10.0 mi South 15.0 mph - N/A   Clear